SCP
0 0 0 0 0 0 -0 0 0 -0 0 -0 -0 0 -0 0 0 0 -0 -0 -0 -0 -0 -0 -0 -0 -0 0 0 0 0 0 0 0 0 0 0 0 0 0 0 0 0 0 0 -0 -0 -0 -0
0 0 0 0 -0 -0 0 0 0 0 0 0 -0 -0 -0 -0 -0 -0 -0 -0 -0 -0 0 0 -0 0 0 0 0 0 0 0 0 0 0 0 0 0 0 0 0 0 0 0 0 0 0 0 0
0 0 -0 0 -0 0 -0 0 -0 0 -0 -0 -0 -0 -0 -0 0 0 -0 -0 -0 -0 0 0 -0 0 0 0 0 0 0 0 0 0 0 0 0 0 0 0 0 0 0 0 0 0 0 0 0
0 0 -0 0 0 0 0 0 0 0 0 0 0 -0 -0 -0 0 0 -0 -0 -0 -0 -0 -0 -0 0 0 0 0 0 0 0 0 0 0 0 0 0 0 0 0 0 0 0 0 0 0 0 0
0 0 0 0 0 0 -0 0 0 -0 0 -0 -0 -0 0 -0 0 0 -0 -0 -0 -0 -0 -0 -1 -0 0 0 1 1 1 0 1 1 1 1 0 1 0 0 0 0 0 0 0 0 0 0 0
0 0 0 0 -0 0 -0 -0 -0 -0 0 -0 -0 -0 -0 0 0 -0 -0 -0 0 0 -0 -0 -0 0 1 1 1 1 1 1 1 1 1 1 1 1 0 1 0 0 0 0 0 0 0 0 0
0 0 0 0 0 0 -0 0 0 0 0 0 -0 0 0 -0 -0 0 0 -0 0 0 0 -0 0 0 1 1 1 1 1 1 1 1 0 1 1 0 1 0 0 0 0 0 1 0 0 0 0
-0 0 0 0 -0 0 0 0 -0 0 -0 0 -0 0 0 0 0 0 0 0 0 0 -0 0 0 1 1 1 1 1 1 1 1 1 1 1 1 1 0 0 0 0 0 0 1 0 0 0 0
0 0 0 -0 0 0 0 0 -0 -0 0 0 -0 -0 -0 -0 0 0 0 0 0 0 -0 0 0 0 1 1 1 1 0 1 1 1 1 0 0 0 0 0 0 0 0 1 0 0 0 0 0
0 0 -0 -0 0 0 0 0 0 -0 -0 0 -0 -0 0 -0 0 0 0 0 -0 -0 0 0 0 1 0 0 0 1 0 0 0 0 0 0 0 0 0 0 0 0 0 0 0 -0 0 0 0
-0 0 -0 -0 -0 0 0 0 0 0 -0 -0 0 -0 0 -0 0 0 0 0 -0 0 0 0 0 0 1 1 0 0 0 1 0 0 0 0 0 0 0 0 0 0 0 0 0 -0 0 0 0
-0 0 -0 0 0 -0 0 0 0 0 -0 0 -0 0 0 0 -0 -0 0 0 0 0 0 0 0 0 0 0 0 0 1 1 0 0 0 0 0 -0 0 0 0 0 0 0 -0 0 0 0 0
-0 -0 0 -0 -0 -0 0 0 -0 -0 -0 -0 -0 -0 0 0 0 -0 -0 0 0 0 0 0 0 0 0 0 0 0 0 0 0 0 0 0 0 0 0 0 0 0 0 0 0 0 0 0 0
0 -0 0 -0 -0 0 0 0 0 -0 0 -0 -0 -0 0 0 0 0 0 1 0 0 0 0 0 0 0 1 1 1 0 0 -0 0 0 0 0 0 0 0 0 0 0 -0 0 0 0 0 0
-0 0 -0 0 0 0 0 0 -0 -0 -0 -0 -0 -0 0 -0 0 0 0 0 0 0 0 0 0 0 0 0 0 0 0 -0 0 0 0 0 0 0 0 0 0 0 0 0 0 0 0 0 0
0 0 -0 0 0 0 0 0 -0 -0 -0 -0 -0 -0 0 0 0 0 0 0 0 0 0 0 0 0 0 0 0 0 0 0 -0 0 0 0 0 0 0 0 0 0 0 0 0 0 0 0 0
0 0 0 -0 0 -0 0 -0 -0 -0 -0 -0 0 -0 0 0 0 0 0 0 0 0 0 0 0 0 0 0 0 0 0 0 0 0 0 0 0 0 0 0 0 0 0 0 0 0 0 0 0
0 0 -0 0 0 -0 0 0 0 0 0 -0 -0 -0 0 0 0 0 0 0 0 0 0 -0 0 0 0 0 0 0 0 0 0 0 0 0 -0 -0 0 0 0 0 0 0 0 0 0 0 0
0 0 0 0 -0 0 0 0 0 -0 -0 0 0 0 0 0 0 0 0 0 0 0 0 -0 -0 -0 -0 0 0 0 0 0 0 0 0 0 0 -0 -0 -0 0 -0 0 0 0 -0 -0 0 0
0 0 0 0 0 0 0 0 0 0 0 0 0 0 0 0 0 0 0 0 0 0 0 0 -0 -0 -0 -0 -0 0 0 0 0 0 0 0 0 0 -0 -0 -0 -0 -0 0 0 -0 0 0 0
0 0 0 0 0 0 0 0 0 0 0 0 0 -0 0 0 0 0 0 0 0 0 0 0 0 -0 -0 -0 -0 0 0 0 0 0 0 0 0 0 -0 -0 -0 -0 -0 -0 -0 -0 0 0 0
0 0 0 -0 0 0 0 0 0 0 -0 0 -0 -0 0 0 0 0 0 0 0 0 0 0 0 0 0 0 0 0 0 0 0 0 0 0 0 0 -0 0 0 -0 -0 -0 -0 -0 -0 0 0
-0 0 0 0 0 0 0 0 0 -0 -0 -0 0 -0 0 0 0 0 0 0 0 0 0 0 0 0 0 0 0 0 0 0 0 0 0 0 0 0 0 0 0 0 0 -0 -0 -0 0 0 0
0 0 0 0 0 0 0 0 0 -0 0 0 -0 0 0 0 0 0 0 0 0 0 0 0 0 0 0 0 0 0 0 0 0 0 0 0 0 0 0 0 0 0 0 -0 -0 0 0 0 0
0 -0 0 0 0 0 0 0 0 0 -0 -0 -0 0 0 0 0 0 0 0 0 0 0 0 0 0 0 0 0 0 0 0 0 0 0 0 0 0 0 0 0 0 0 0 -0 0 0 0 0
0 -0 0 0 0 0 0 0 0 -0 -0 -0 0 0 0 0 0 0 0 0 0 0 0 0 0 0 0 0 0 0 0 0 0 0 0 0 0 0 0 0 0 0 0 0 0 0 0 0 0
-0 0 0 0 0 0 0 0 0 0 0 0 0 0 0 0 0 0 0 0 0 0 0 0 0 0 0 0 0 0 0 0 0 0 0 0 0 0 0 0 0 0 0 0 0 0 0 0 0
0 0 0 0 0 0 0 0 0 0 0 0 0 0 0 0 0 0 0 0 0 0 0 0 0 0 0 0 0 0 0 0 0 0 0 0 0 0 0 0 0 0 0 0 0 0 0 0 0
0 0 0 0 0 0 0 0 -0 -0 0 0 0 0 0 0 0 0 0 0 0 0 0 0 0 0 0 0 0 0 0 0 0 0 0 0 0 0 0 0 0 0 0 0 0 0 0 0 0
-0 0 0 0 0 0 0 0 0 0 0 0 0 0 0 0 0 0 0 0 0 0 0 0 0 0 0 0 0 0 0 0 0 0 0 0 0 0 0 0 0 0 0 0 0 0 0 0 0
Wind_Speed_500mb
13 28 18 11 8 8 3 12 22 22 13 47 55 35 32 16 9 8 33 22 24 17 20 18 15 14 15 14 13 11 9 7 7 8 8 7 4 1 1 3 6 9 11 14 16 18 20 23 27
34 22 18 11 9 7 3 16 20 16 29 49 62 51 47 31 50 47 42 22 17 15 19 16 14 12 11 10 8 7 5 4 5 7 9 10 8 6 4 4 3 1 4 6 8 11 15 18 21
29 28 15 6 5 8 8 18 21 38 57 57 53 47 26 27 40 31 31 21 14 14 16 14 9 7 5 6 5 4 5 7 10 11 13 14 15 14 12 11 9 8 9 9 8 9 11 13 16
20 8 14 8 10 18 17 19 26 43 53 51 34 18 51 35 24 47 28 7 6 19 17 6 2 0 3 5 6 8 10 12 13 16 19 21 22 22 20 18 17 18 16 15 14 13 14 12 14
1 7 5 12 8 11 26 36 37 28 44 50 50 36 51 45 46 40 22 0 17 9 6 14 9 8 10 12 13 13 15 18 20 21 22 24 24 25 25 25 27 26 25 24 20 20 20 18 16
12 13 7 4 6 10 18 46 24 24 46 53 51 45 44 40 41 29 20 31 27 8 7 18 16 12 19 14 15 18 21 23 25 29 25 24 24 26 25 29 33 35 34 31 27 28 27 24 22
17 7 6 11 4 14 12 46 35 43 47 15 53 23 45 53 38 31 26 42 24 10 3 3 20 21 15 16 16 22 24 32 31 32 26 23 25 25 28 28 31 37 40 38 36 35 35 34 29
15 13 12 9 32 6 28 43 36 24 10 25 26 17 32 60 49 46 34 28 16 11 15 14 17 26 18 22 17 22 27 25 29 36 26 32 22 27 27 34 41 36 38 42 40 38 39 39 36
37 3 5 33 22 17 46 9 58 43 18 6 17 52 71 52 49 40 22 14 28 9 14 16 6 18 14 15 13 23 27 38 36 38 36 27 21 22 34 42 32 31 41 43 33 41 42 42 42
16 10 10 37 40 36 39 46 22 30 36 13 73 77 62 45 26 9 8 11 27 7 22 25 19 11 17 16 21 22 31 34 34 31 30 32 38 27 34 42 34 36 38 43 57 33 39 36 46
23 24 37 49 61 64 36 29 31 17 12 8 51 61 48 32 13 30 33 20 18 15 25 24 17 17 17 7 14 25 30 35 32 35 27 21 11 29 37 44 37 42 49 44 34 25 27 32 29
48 56 58 47 56 44 27 28 15 25 30 31 48 45 31 27 29 38 37 41 34 31 23 20 25 24 22 24 18 17 30 38 39 30 17 21 21 34 43 38 38 40 44 43 38 21 24 27 32
43 53 40 40 60 47 42 49 40 27 47 42 59 51 51 41 34 42 43 33 21 25 22 23 27 26 24 28 27 30 40 33 31 41 26 27 23 26 29 30 35 33 27 22 24 16 21 19 17
42 52 41 19 3 14 21 31 33 13 46 55 62 61 54 53 45 44 32 32 28 22 24 18 12 17 15 23 32 39 34 41 32 21 18 22 19 20 29 31 32 29 28 30 26 22 30 19 27
48 26 11 11 9 5 14 16 41 67 71 63 69 60 56 46 33 40 33 31 29 24 18 17 20 22 16 18 23 38 45 53 40 28 21 26 29 34 38 37 34 28 27 27 22 20 22 16 27
15 9 9 7 6 8 4 9 28 60 63 61 60 54 44 44 47 46 35 24 21 16 21 23 25 17 12 18 22 31 43 45 43 37 39 46 49 42 45 47 34 28 23 27 23 21 20 27 32
18 2 10 6 17 9 24 23 56 49 66 50 43 28 37 44 43 35 25 22 23 27 40 49 39 27 22 26 23 18 37 40 38 37 42 42 44 46 49 43 36 30 27 26 28 25 17 16 17
11 5 7 5 12 46 44 37 36 31 44 73 76 25 39 44 42 26 26 32 33 38 46 52 53 46 39 44 33 22 34 44 41 51 58 56 53 55 45 48 44 37 27 22 25 26 20 17 24
38 13 11 8 40 20 20 34 19 24 61 25 49 28 41 46 31 27 27 21 26 34 46 55 62 64 61 63 56 37 33 37 42 50 48 51 50 46 54 52 57 48 37 36 36 39 39 30 21
11 8 11 23 26 15 17 12 12 17 19 26 39 25 35 37 25 19 24 21 28 39 45 51 58 67 69 76 67 43 31 40 41 42 40 34 35 43 52 54 45 40 34 36 36 37 36 29 28
13 18 13 25 25 26 20 17 13 15 7 6 17 32 30 32 24 30 26 32 32 39 43 45 54 61 69 69 65 43 38 45 47 39 47 41 42 46 53 52 44 41 38 37 34 32 33 35 28
16 26 35 27 9 10 8 5 10 12 19 14 12 19 27 28 33 32 32 30 32 36 38 39 46 51 64 63 56 49 40 43 39 32 35 37 44 47 48 47 43 41 40 35 33 31 28 28 30
11 30 18 12 14 13 11 9 14 14 11 14 31 14 36 39 41 40 31 24 21 23 27 33 39 48 56 61 58 57 33 36 40 38 34 33 37 39 47 45 46 45 45 41 35 30 28 24 27
9 13 8 12 10 8 3 7 12 9 15 5 25 26 38 42 37 38 31 25 27 20 18 26 39 46 49 53 60 57 38 40 44 48 46 45 44 43 49 45 46 48 40 46 38 28 30 28 25
17 13 7 9 8 9 19 10 16 26 19 30 30 35 43 40 35 29 26 26 28 16 21 31 39 38 43 50 58 51 41 42 46 50 47 46 45 47 48 52 46 44 42 42 35 32 32 32 29
12 8 8 5 7 7 19 1 12 19 47 44 41 38 32 29 27 28 26 26 26 14 23 33 37 34 43 45 50 46 34 41 46 45 43 44 44 44 48 52 46 40 37 40 38 34 33 32 34
12 10 10 5 3 11 5 8 11 15 33 42 48 39 21 40 33 32 30 28 27 25 26 31 35 35 39 38 45 41 31 40 39 40 41 38 41 48 46 53 44 36 34 39 39 38 36 33 31
5 9 10 9 6 8 3 10 13 15 15 19 37 39 23 39 36 31 28 25 22 24 25 21 23 31 34 32 44 44 32 35 35 37 45 36 39 48 56 48 42 39 36 38 41 39 37 34 32
14 11 11 4 7 3 9 7 16 33 14 16 43 35 43 44 38 32 26 21 19 13 19 23 25 26 32 30 46 43 28 36 37 33 42 40 39 45 49 46 42 39 39 36 42 42 41 34 28
6 9 10 9 13 4 9 7 8 22 26 50 49 38 34 35 38 32 25 22 20 18 15 21 25 23 30 27 38 45 29 35 40 34 38 35 35 43 48 40 44 41 42 33 41 49 42 36 31
Wind_Direction_500mb
19 32 31 61 33 48 217 93 101 81 48 83 79 75 61 100 132 168 141 148 124 124 131 125 121 119 113 115 121 122 124 133 153 166 175 182 185 168 100 80 62 53 49 46 44 43 40 38 39
89 65 354 43 43 15 356 88 108 128 87 78 92 87 77 71 103 112 134 131 127 123 128 115 113 117 119 124 135 144 156 190 219 225 225 226 229 236 248 250 256 333 3 5 13 14 15 19 23
69 67 349 49 105 290 58 80 87 88 86 79 78 79 100 112 114 120 126 124 103 119 122 117 119 120 139 158 176 204 227 246 252 253 253 250 248 247 248 254 263 271 276 290 309 332 343 353 3
98 36 116 55 298 299 98 57 49 100 102 101 102 63 91 111 91 124 122 92 107 105 87 90 155 56 318 308 291 272 271 271 265 262 257 254 252 250 251 255 259 260 263 269 280 298 309 321 332
188 201 88 135 158 275 83 98 107 108 100 102 98 89 84 88 103 114 123 25 173 124 51 28 343 319 322 313 305 306 308 295 286 271 263 258 257 258 256 254 256 258 260 265 271 279 287 297 306
261 202 66 224 65 323 43 44 71 32 116 114 104 106 109 108 104 111 99 89 137 104 26 348 8 359 342 316 311 308 304 305 288 287 273 267 261 257 256 252 256 256 253 256 264 270 276 284 289
210 354 252 164 197 73 11 47 49 70 60 60 126 123 126 104 122 129 119 88 128 112 83 293 346 352 343 312 294 314 333 319 298 288 272 274 270 264 260 263 267 270 267 260 259 263 266 270 273
122 132 173 236 122 65 42 17 341 37 104 139 133 129 109 113 127 113 98 58 56 58 328 346 318 341 331 319 286 326 318 320 310 301 287 282 278 279 272 286 265 276 277 264 263 261 264 266 265
265 24 184 104 106 145 99 89 1 359 110 329 82 109 120 131 121 124 112 44 237 262 63 40 17 355 20 9 343 331 337 336 331 319 306 281 294 288 304 280 269 294 280 259 264 272 277 257 258
203 119 10 103 137 134 141 96 99 329 310 117 84 107 110 89 98 112 37 48 116 120 31 27 19 24 34 16 339 323 330 347 353 341 330 296 278 282 303 297 293 275 274 250 246 253 262 249 252
20 107 100 114 124 116 117 107 97 351 320 250 113 112 103 91 12 105 93 84 118 36 49 31 15 47 76 87 338 330 325 335 341 355 337 335 304 303 309 310 291 281 289 290 249 250 266 240 261
72 109 94 111 116 124 135 121 67 178 243 68 127 107 85 135 119 109 93 83 71 60 55 9 26 30 36 26 19 323 324 326 327 342 335 318 308 324 326 314 299 290 286 324 265 275 275 263 271
94 94 90 127 140 140 130 119 124 219 209 111 94 85 90 99 95 89 85 85 101 85 61 26 20 24 16 12 5 352 339 328 321 352 338 331 345 330 313 326 325 343 327 313 248 242 270 236 259
98 96 116 116 38 90 120 149 138 108 157 103 101 102 97 93 101 91 95 78 74 86 88 83 26 358 14 32 3 2 349 2 4 30 32 26 19 347 353 351 350 342 339 337 332 279 313 228 254
129 112 137 138 231 351 43 89 113 127 121 119 97 91 91 102 91 86 79 62 69 64 60 42 20 12 20 17 358 21 10 3 12 15 16 14 4 351 343 342 337 350 355 351 349 340 334 262 256
70 63 52 143 122 305 27 83 51 103 104 96 89 87 94 94 98 100 86 75 67 47 30 20 15 14 1 6 359 17 26 16 14 9 6 6 3 2 353 345 342 351 354 359 353 348 308 293 292
18 49 303 314 165 211 50 37 17 31 65 53 108 116 110 90 98 96 84 51 39 29 19 14 26 30 9 12 4 358 38 27 15 12 8 356 353 346 335 335 330 313 331 342 343 344 335 340 347
153 202 248 168 94 62 62 60 52 70 73 356 325 144 111 103 100 82 44 28 16 19 17 17 23 28 17 21 31 41 42 34 23 15 13 9 15 15 15 8 9 356 344 340 347 348 347 332 320
182 158 198 103 140 101 105 76 35 99 113 96 82 90 109 108 92 62 35 41 24 22 16 17 17 20 18 20 20 23 31 22 25 26 25 16 7 17 14 10 5 5 1 0 352 342 343 346 335
47 94 93 70 100 80 82 129 123 48 120 165 128 135 125 112 94 76 80 54 38 23 18 18 17 13 15 11 11 28 39 29 25 40 24 30 11 8 4 0 5 1 360 360 356 359 357 2 23
50 78 49 118 85 53 87 4 3 333 34 171 28 139 133 109 95 104 87 59 40 28 19 16 13 14 8 8 14 37 43 34 27 33 33 35 22 8 9 11 7 9 5 2 358 352 353 351 7
62 92 100 158 97 103 309 286 273 285 339 342 266 264 136 110 121 98 80 69 48 33 13 9 16 13 9 8 24 25 34 28 19 9 7 16 12 5 4 5 7 7 1 355 353 351 351 346 348
154 121 135 110 83 93 12 98 287 340 313 299 299 209 126 124 107 96 83 69 53 26 10 11 15 10 13 12 18 12 14 17 18 21 22 9 11 12 4 2 2 2 358 350 345 351 0 342 333
295 146 58 74 117 47 241 107 275 235 214 326 273 166 132 119 108 93 77 49 36 35 21 12 8 11 16 16 16 17 30 33 31 26 22 17 12 11 7 8 3 359 9 9 13 15 8 360 345
16 9 343 17 40 194 146 113 243 218 232 203 202 111 112 103 107 95 84 52 37 57 35 18 9 25 19 15 13 20 37 38 27 22 19 16 14 8 4 359 3 5 8 13 13 12 14 12 2
305 119 131 288 163 164 158 44 295 198 214 202 132 105 94 101 110 97 87 70 46 54 34 26 26 28 21 11 13 22 31 30 27 19 20 15 11 9 1 4 4 2 12 20 21 19 13 11 8
304 1 232 187 325 93 75 327 335 161 172 138 119 106 105 119 115 102 91 80 54 48 52 40 32 22 16 9 14 19 32 29 22 17 16 12 8 4 6 4 5 18 18 19 22 19 16 13 9
237 260 9 2 6 75 358 78 301 269 150 150 128 121 112 116 111 96 93 88 78 42 25 23 19 12 8 9 19 21 25 17 15 16 15 9 9 9 15 6 12 19 19 19 18 17 20 18 26
356 13 20 94 64 89 149 219 233 231 168 143 137 129 110 109 105 100 92 76 54 45 16 19 20 14 8 16 24 21 24 17 15 14 11 10 16 13 5 8 7 11 20 24 23 19 18 23 28
335 108 91 106 311 303 115 289 266 129 138 114 114 103 111 109 101 96 85 66 55 38 15 6 13 28 9 13 19 16 28 15 19 18 8 5 14 12 8 12 7 15 21 24 24 20 20 25 29
Wind_Speed_850mb
13 28 18 11 8 8 3 12 22 22 13 47 55 35 32 16 9 8 33 22 24 17 20 18 15 14 15 14 13 11 9 7 7 8 8 7 4 1 1 3 6 9 11 14 16 18 20 23 27
34 22 18 11 9 7 3 16 20 16 29 49 62 51 47 31 50 47 42 22 17 15 19 16 14 12 11 10 8 7 5 4 5 7 9 10 8 6 4 4 3 1 4 6 8 11 15 18 21
29 28 15 6 5 8 8 18 21 38 57 57 53 47 26 27 40 31 31 21 14 14 16 14 9 7 5 6 5 4 5 7 10 11 13 14 15 14 12 11 9 8 9 9 8 9 11 13 16
20 8 14 8 10 18 17 19 26 43 53 51 34 18 51 35 24 47 28 7 6 19 17 6 2 0 3 5 6 8 10 12 13 16 19 21 22 22 20 18 17 18 16 15 14 13 14 12 14
1 7 5 12 8 11 26 36 37 28 44 50 50 36 51 45 46 40 22 0 17 9 6 14 9 8 10 12 13 13 15 18 20 21 22 24 24 25 25 25 27 26 25 24 20 20 20 18 16
12 13 7 4 6 10 18 46 24 24 46 53 51 45 44 40 41 29 20 31 27 8 7 18 16 12 19 14 15 18 21 23 25 29 25 24 24 26 25 29 33 35 34 31 27 28 27 24 22
17 7 6 11 4 14 12 46 35 43 47 15 53 23 45 53 38 31 26 42 24 10 3 3 20 21 15 16 16 22 24 32 31 32 26 23 25 25 28 28 31 37 40 38 36 35 35 34 29
15 13 12 9 32 6 28 43 36 24 10 25 26 17 32 60 49 46 34 28 16 11 15 14 17 26 18 22 17 22 27 25 29 36 26 32 22 27 27 34 41 36 38 42 40 38 39 39 36
37 3 5 33 22 17 46 9 58 43 18 6 17 52 71 52 49 40 22 14 28 9 14 16 6 18 14 15 13 23 27 38 36 38 36 27 21 22 34 42 32 31 41 43 33 41 42 42 42
16 10 10 37 40 36 39 46 22 30 36 13 73 77 62 45 26 9 8 11 27 7 22 25 19 11 17 16 21 22 31 34 34 31 30 32 38 27 34 42 34 36 38 43 57 33 39 36 46
23 24 37 49 61 64 36 29 31 17 12 8 51 61 48 32 13 30 33 20 18 15 25 24 17 17 17 7 14 25 30 35 32 35 27 21 11 29 37 44 37 42 49 44 34 25 27 32 29
48 56 58 47 56 44 27 28 15 25 30 31 48 45 31 27 29 38 37 41 34 31 23 20 25 24 22 24 18 17 30 38 39 30 17 21 21 34 43 38 38 40 44 43 38 21 24 27 32
43 53 40 40 60 47 42 49 40 27 47 42 59 51 51 41 34 42 43 33 21 25 22 23 27 26 24 28 27 30 40 33 31 41 26 27 23 26 29 30 35 33 27 22 24 16 21 19 17
42 52 41 19 3 14 21 31 33 13 46 55 62 61 54 53 45 44 32 32 28 22 24 18 12 17 15 23 32 39 34 41 32 21 18 22 19 20 29 31 32 29 28 30 26 22 30 19 27
48 26 11 11 9 5 14 16 41 67 71 63 69 60 56 46 33 40 33 31 29 24 18 17 20 22 16 18 23 38 45 53 40 28 21 26 29 34 38 37 34 28 27 27 22 20 22 16 27
15 9 9 7 6 8 4 9 28 60 63 61 60 54 44 44 47 46 35 24 21 16 21 23 25 17 12 18 22 31 43 45 43 37 39 46 49 42 45 47 34 28 23 27 23 21 20 27 32
18 2 10 6 17 9 24 23 56 49 66 50 43 28 37 44 43 35 25 22 23 27 40 49 39 27 22 26 23 18 37 40 38 37 42 42 44 46 49 43 36 30 27 26 28 25 17 16 17
11 5 7 5 12 46 44 37 36 31 44 73 76 25 39 44 42 26 26 32 33 38 46 52 53 46 39 44 33 22 34 44 41 51 58 56 53 55 45 48 44 37 27 22 25 26 20 17 24
38 13 11 8 40 20 20 34 19 24 61 25 49 28 41 46 31 27 27 21 26 34 46 55 62 64 61 63 56 37 33 37 42 50 48 51 50 46 54 52 57 48 37 36 36 39 39 30 21
11 8 11 23 26 15 17 12 12 17 19 26 39 25 35 37 25 19 24 21 28 39 45 51 58 67 69 76 67 43 31 40 41 42 40 34 35 43 52 54 45 40 34 36 36 37 36 29 28
13 18 13 25 25 26 20 17 13 15 7 6 17 32 30 32 24 30 26 32 32 39 43 45 54 61 69 69 65 43 38 45 47 39 47 41 42 46 53 52 44 41 38 37 34 32 33 35 28
16 26 35 27 9 10 8 5 10 12 19 14 12 19 27 28 33 32 32 30 32 36 38 39 46 51 64 63 56 49 40 43 39 32 35 37 44 47 48 47 43 41 40 35 33 31 28 28 30
11 30 18 12 14 13 11 9 14 14 11 14 31 14 36 39 41 40 31 24 21 23 27 33 39 48 56 61 58 57 33 36 40 38 34 33 37 39 47 45 46 45 45 41 35 30 28 24 27
9 13 8 12 10 8 3 7 12 9 15 5 25 26 38 42 37 38 31 25 27 20 18 26 39 46 49 53 60 57 38 40 44 48 46 45 44 43 49 45 46 48 40 46 38 28 30 28 25
17 13 7 9 8 9 19 10 16 26 19 30 30 35 43 40 35 29 26 26 28 16 21 31 39 38 43 50 58 51 41 42 46 50 47 46 45 47 48 52 46 44 42 42 35 32 32 32 29
12 8 8 5 7 7 19 1 12 19 47 44 41 38 32 29 27 28 26 26 26 14 23 33 37 34 43 45 50 46 34 41 46 45 43 44 44 44 48 52 46 40 37 40 38 34 33 32 34
12 10 10 5 3 11 5 8 11 15 33 42 48 39 21 40 33 32 30 28 27 25 26 31 35 35 39 38 45 41 31 40 39 40 41 38 41 48 46 53 44 36 34 39 39 38 36 33 31
5 9 10 9 6 8 3 10 13 15 15 19 37 39 23 39 36 31 28 25 22 24 25 21 23 31 34 32 44 44 32 35 35 37 45 36 39 48 56 48 42 39 36 38 41 39 37 34 32
14 11 11 4 7 3 9 7 16 33 14 16 43 35 43 44 38 32 26 21 19 13 19 23 25 26 32 30 46 43 28 36 37 33 42 40 39 45 49 46 42 39 39 36 42 42 41 34 28
6 9 10 9 13 4 9 7 8 22 26 50 49 38 34 35 38 32 25 22 20 18 15 21 25 23 30 27 38 45 29 35 40 34 38 35 35 43 48 40 44 41 42 33 41 49 42 36 31
Wind_Direction_850mb
19 32 31 61 33 48 217 93 101 81 48 83 79 75 61 100 132 168 141 148 124 124 131 125 121 119 113 115 121 122 124 133 153 166 175 182 185 168 100 80 62 53 49 46 44 43 40 38 39
89 65 354 43 43 15 356 88 108 128 87 78 92 87 77 71 103 112 134 131 127 123 128 115 113 117 119 124 135 144 156 190 219 225 225 226 229 236 248 250 256 333 3 5 13 14 15 19 23
69 67 349 49 105 290 58 80 87 88 86 79 78 79 100 112 114 120 126 124 103 119 122 117 119 120 139 158 176 204 227 246 252 253 253 250 248 247 248 254 263 271 276 290 309 332 343 353 3
98 36 116 55 298 299 98 57 49 100 102 101 102 63 91 111 91 124 122 92 107 105 87 90 155 56 318 308 291 272 271 271 265 262 257 254 252 250 251 255 259 260 263 269 280 298 309 321 332
188 201 88 135 158 275 83 98 107 108 100 102 98 89 84 88 103 114 123 25 173 124 51 28 343 319 322 313 305 306 308 295 286 271 263 258 257 258 256 254 256 258 260 265 271 279 287 297 306
261 202 66 224 65 323 43 44 71 32 116 114 104 106 109 108 104 111 99 89 137 104 26 348 8 359 342 316 311 308 304 305 288 287 273 267 261 257 256 252 256 256 253 256 264 270 276 284 289
210 354 252 164 197 73 11 47 49 70 60 60 126 123 126 104 122 129 119 88 128 112 83 293 346 352 343 312 294 314 333 319 298 288 272 274 270 264 260 263 267 270 267 260 259 263 266 270 273
122 132 173 236 122 65 42 17 341 37 104 139 133 129 109 113 127 113 98 58 56 58 328 346 318 341 331 319 286 326 318 320 310 301 287 282 278 279 272 286 265 276 277 264 263 261 264 266 265
265 24 184 104 106 145 99 89 1 359 110 329 82 109 120 131 121 124 112 44 237 262 63 40 17 355 20 9 343 331 337 336 331 319 306 281 294 288 304 280 269 294 280 259 264 272 277 257 258
203 119 10 103 137 134 141 96 99 329 310 117 84 107 110 89 98 112 37 48 116 120 31 27 19 24 34 16 339 323 330 347 353 341 330 296 278 282 303 297 293 275 274 250 246 253 262 249 252
20 107 100 114 124 116 117 107 97 351 320 250 113 112 103 91 12 105 93 84 118 36 49 31 15 47 76 87 338 330 325 335 341 355 337 335 304 303 309 310 291 281 289 290 249 250 266 240 261
72 109 94 111 116 124 135 121 67 178 243 68 127 107 85 135 119 109 93 83 71 60 55 9 26 30 36 26 19 323 324 326 327 342 335 318 308 324 326 314 299 290 286 324 265 275 275 263 271
94 94 90 127 140 140 130 119 124 219 209 111 94 85 90 99 95 89 85 85 101 85 61 26 20 24 16 12 5 352 339 328 321 352 338 331 345 330 313 326 325 343 327 313 248 242 270 236 259
98 96 116 116 38 90 120 149 138 108 157 103 101 102 97 93 101 91 95 78 74 86 88 83 26 358 14 32 3 2 349 2 4 30 32 26 19 347 353 351 350 342 339 337 332 279 313 228 254
129 112 137 138 231 351 43 89 113 127 121 119 97 91 91 102 91 86 79 62 69 64 60 42 20 12 20 17 358 21 10 3 12 15 16 14 4 351 343 342 337 350 355 351 349 340 334 262 256
70 63 52 143 122 305 27 83 51 103 104 96 89 87 94 94 98 100 86 75 67 47 30 20 15 14 1 6 359 17 26 16 14 9 6 6 3 2 353 345 342 351 354 359 353 348 308 293 292
18 49 303 314 165 211 50 37 17 31 65 53 108 116 110 90 98 96 84 51 39 29 19 14 26 30 9 12 4 358 38 27 15 12 8 356 353 346 335 335 330 313 331 342 343 344 335 340 347
153 202 248 168 94 62 62 60 52 70 73 356 325 144 111 103 100 82 44 28 16 19 17 17 23 28 17 21 31 41 42 34 23 15 13 9 15 15 15 8 9 356 344 340 347 348 347 332 320
182 158 198 103 140 101 105 76 35 99 113 96 82 90 109 108 92 62 35 41 24 22 16 17 17 20 18 20 20 23 31 22 25 26 25 16 7 17 14 10 5 5 1 0 352 342 343 346 335
47 94 93 70 100 80 82 129 123 48 120 165 128 135 125 112 94 76 80 54 38 23 18 18 17 13 15 11 11 28 39 29 25 40 24 30 11 8 4 0 5 1 360 360 356 359 357 2 23
50 78 49 118 85 53 87 4 3 333 34 171 28 139 133 109 95 104 87 59 40 28 19 16 13 14 8 8 14 37 43 34 27 33 33 35 22 8 9 11 7 9 5 2 358 352 353 351 7
62 92 100 158 97 103 309 286 273 285 339 342 266 264 136 110 121 98 80 69 48 33 13 9 16 13 9 8 24 25 34 28 19 9 7 16 12 5 4 5 7 7 1 355 353 351 351 346 348
154 121 135 110 83 93 12 98 287 340 313 299 299 209 126 124 107 96 83 69 53 26 10 11 15 10 13 12 18 12 14 17 18 21 22 9 11 12 4 2 2 2 358 350 345 351 0 342 333
295 146 58 74 117 47 241 107 275 235 214 326 273 166 132 119 108 93 77 49 36 35 21 12 8 11 16 16 16 17 30 33 31 26 22 17 12 11 7 8 3 359 9 9 13 15 8 360 345
16 9 343 17 40 194 146 113 243 218 232 203 202 111 112 103 107 95 84 52 37 57 35 18 9 25 19 15 13 20 37 38 27 22 19 16 14 8 4 359 3 5 8 13 13 12 14 12 2
305 119 131 288 163 164 158 44 295 198 214 202 132 105 94 101 110 97 87 70 46 54 34 26 26 28 21 11 13 22 31 30 27 19 20 15 11 9 1 4 4 2 12 20 21 19 13 11 8
304 1 232 187 325 93 75 327 335 161 172 138 119 106 105 119 115 102 91 80 54 48 52 40 32 22 16 9 14 19 32 29 22 17 16 12 8 4 6 4 5 18 18 19 22 19 16 13 9
237 260 9 2 6 75 358 78 301 269 150 150 128 121 112 116 111 96 93 88 78 42 25 23 19 12 8 9 19 21 25 17 15 16 15 9 9 9 15 6 12 19 19 19 18 17 20 18 26
356 13 20 94 64 89 149 219 233 231 168 143 137 129 110 109 105 100 92 76 54 45 16 19 20 14 8 16 24 21 24 17 15 14 11 10 16 13 5 8 7 11 20 24 23 19 18 23 28
335 108 91 106 311 303 115 289 266 129 138 114 114 103 111 109 101 96 85 66 55 38 15 6 13 28 9 13 19 16 28 15 19 18 8 5 14 12 8 12 7 15 21 24 24 20 20 25 29